Weather History for Madera, CA

Change the Weather History Date:

Friday, August 30, 2013

  Actual Average Record
Temperature  
Mean Temperature 81 °F 76 °F  
Max Temperature 99 °F 93 °F 104 °F (2008)
Min Temperature 62 °F 59 °F 53 °F (2010)
Degree Days  
Heating Degree Days 0    
Month to date heating degree days 0  
Since 1 June heating degree days 0  
Since 1 July heating degree days 0  
Cooling Degree Days 16    
Month to date cooling degree days 392  
Year to date cooling degree days 1425  
Since 1 June cooling degree days 1248  
Growing Degree Days 30 (Base 50)    
Moisture  
Dew Point 57 °F    
Average Humidity 52    
Maximum Humidity 84    
Minimum Humidity 20    
Precipitation  
Precipitation 0.00 in 0.00 in 0.01 in (2007)
Month to date precipitation 0.01 0.02  
Year to date precipitation 3.53 8.04  
Since 1 July precipitation 0.01 0.04  
Snow  
Snow 0.00 in - - ()
Month to date snowfall 0.0  
Since 1 June snowfall 0.0  
Since 1 July snowfall 0.0  
Snow Depth 0.00 in    
Sea Level Pressure  
Sea Level Pressure 29.94 in    
Wind  
Wind Speed 6 mph (WNW)    
Max Wind Speed 13 mph    
Max Gust Speed 15 mph    
Visibility 9 miles    
Events      
T = Trace of Precipitation, MM = Missing Value Source: NWS Daily Summary

Daily Weather History Graph

Daily Weather History Graph

Search for Another Location

Airport:

Trip Planner

Search our weather history database for the weather conditions in past years. The results will help you decide how hot, cold, wet, or windy it might be!

Date:

Astronomy

Aug. 30, 2013 Rise Set
Actual Time 6:29 AM PDT 7:31 PM PDT
Civil Twilight 6:03 AM PDT 7:57 PM PDT
Nautical Twilight 5:31 AM PDT 8:29 PM PDT
Astronomical Twilight 4:58 AM PDT 9:02 PM PDT
Moon 1:16 AM PDT (8/30) 3:46 PM PDT (8/30)
Length of Visible Light 13h 54m
Length of Day
13h 01m
Waning Crescent, 28% of the Moon is Illuminated
Aug 30
Waning Crescent
Sep 5
New
Sep 12
First Quarter
Sep 19
Full
Sep 26
Last Quarter

Hourly Weather History & Observations

Time (PDT) Temp. Heat Index Dew Point Humidity Pressure Visibility Wind Dir Wind Speed Gust Speed Precip Events Conditions
12:53 AM 72.0 °F - 57.0 °F 59% 29.98 in 10.0 mi NW 8.1 mph - N/A   Clear
1:53 AM 71.1 °F - 57.0 °F 61% 29.97 in 10.0 mi NW 6.9 mph - N/A   Clear
2:53 AM 66.9 °F - 57.0 °F 70% 29.96 in 10.0 mi WNW 3.5 mph - N/A   Clear
3:53 AM 64.0 °F - 57.0 °F 78% 29.95 in 10.0 mi West 5.8 mph - N/A   Clear
4:53 AM 64.0 °F - 57.9 °F 80% 29.96 in 10.0 mi WNW 4.6 mph - N/A   Clear
5:53 AM 62.1 °F - 55.9 °F 80% 29.98 in 10.0 mi West 5.8 mph - N/A   Clear
6:53 AM 62.1 °F - 57.0 °F 84% 29.99 in 10.0 mi Calm Calm - N/A   Clear
7:53 AM 68.0 °F - 57.9 °F 70% 30.00 in 10.0 mi West 6.9 mph - N/A   Clear
8:53 AM 75.0 °F - 57.9 °F 55% 30.01 in 10.0 mi NW 8.1 mph - N/A   Clear
9:53 AM 79.0 °F - 59.0 °F 50% 30.01 in 9.0 mi NW 6.9 mph - N/A   Clear
10:53 AM 82.9 °F 83.2 °F 60.1 °F 46% 30.00 in 7.0 mi NNW 3.5 mph - N/A   Clear
11:53 AM 86.0 °F 85.7 °F 60.1 °F 41% 29.99 in 6.0 mi WNW 8.1 mph - N/A   Haze
12:53 PM 91.0 °F 90.0 °F 57.9 °F 33% 29.96 in 7.0 mi WNW 8.1 mph - N/A   Clear
1:53 PM 95.0 °F 93.0 °F 55.0 °F 26% 29.94 in 7.0 mi WNW 5.8 mph - N/A   Clear
2:53 PM 96.1 °F - 52.0 °F 22% 29.91 in 10.0 mi WNW 8.1 mph - N/A   Clear
3:53 PM 98.1 °F - 52.0 °F 21% 29.89 in 10.0 mi WNW 10.4 mph - N/A   Partly Cloudy
4:53 PM 98.1 °F - 50.0 °F 20% 29.87 in 10.0 mi WNW 9.2 mph - N/A   Partly Cloudy
5:53 PM 97.0 °F - 51.1 °F 21% 29.86 in 10.0 mi WNW 8.1 mph - N/A   Partly Cloudy
6:53 PM 93.0 °F 90.8 °F 54.0 °F 27% 29.86 in 10.0 mi WNW 4.6 mph - N/A   Partly Cloudy
7:53 PM 84.9 °F 83.9 °F 57.0 °F 38% 29.87 in 10.0 mi WNW 4.6 mph - N/A   Clear
8:53 PM 79.0 °F - 57.9 °F 48% 29.88 in 10.0 mi WNW 3.5 mph - N/A   Clear
9:53 PM 77.0 °F - 60.1 °F 56% 29.90 in 10.0 mi Calm Calm - N/A   Clear
10:53 PM 73.0 °F - 59.0 °F 61% 29.91 in 10.0 mi West 6.9 mph - N/A   Clear
11:53 PM 73.9 °F - 57.9 °F 57% 29.91 in 10.0 mi WNW 5.8 mph - N/A   Clear